TimePST,TemperatureF,Dew PointF,Humidity,Sea Level PressureIn,VisibilityMPH,Wind Direction,Wind SpeedMPH,Gust SpeedMPH,PrecipitationIn,Events,Conditions,WindDirDegrees,DateUTC
12:52 AM,27.0,24.1,89,30.27,10.0,NNE,4.6,-,N/A,,Clear,20,2012-11-27 08:52:00
1:52 AM,27.0,24.1,89,30.26,10.0,NNE,4.6,-,N/A,,Clear,30,2012-11-27 09:52:00
2:52 AM,27.0,24.1,89,30.27,10.0,Calm,Calm,-,N/A,,Clear,0,2012-11-27 10:52:00
3:52 AM,26.1,23.0,88,30.26,8.0,Calm,Calm,-,N/A,,Clear,0,2012-11-27 11:52:00
4:06 AM,26.6,24.8,93,30.22,7.0,Calm,Calm,-,N/A,,Scattered Clouds,0,2012-11-27 12:06:00
4:15 AM,26.6,24.8,93,30.22,6.0,Calm,Calm,-,N/A,,Mostly Cloudy,0,2012-11-27 12:15:00
4:22 AM,26.6,24.8,93,30.22,1.8,Calm,Calm,-,N/A,,Mostly Cloudy,0,2012-11-27 12:22:00
4:32 AM,26.6,24.8,93,30.23,0.5,Calm,Calm,-,N/A,Fog,Light Freezing Fog,0,2012-11-27 12:32:00
4:52 AM,27.0,24.1,89,30.27,0.5,Calm,Calm,-,N/A,Fog,Light Freezing Fog,0,2012-11-27 12:52:00
5:01 AM,26.6,24.8,93,30.23,0.5,Calm,Calm,-,N/A,Fog,Light Freezing Fog,0,2012-11-27 13:01:00
5:16 AM,26.6,24.8,93,30.23,0.2,Calm,Calm,-,N/A,Fog,Light Freezing Fog,0,2012-11-27 13:16:00
5:52 AM,27.0,24.1,89,30.27,0.2,Calm,Calm,-,N/A,Fog,Light Freezing Fog,0,2012-11-27 13:52:00
6:14 AM,26.6,24.8,93,30.23,1.0,Calm,Calm,-,N/A,,Mist,0,2012-11-27 14:14:00
6:22 AM,26.6,24.8,93,30.23,0.8,Calm,Calm,-,N/A,,Mist,0,2012-11-27 14:22:00
6:44 AM,26.6,24.8,93,30.22,0.2,Calm,Calm,-,N/A,Fog,Light Freezing Fog,0,2012-11-27 14:44:00
6:52 AM,27.0,24.1,89,30.27,0.2,Calm,Calm,-,N/A,Fog,Light Freezing Fog,0,2012-11-27 14:52:00
7:07 AM,26.6,24.8,93,30.23,0.2,Calm,Calm,-,N/A,Fog,Light Freezing Fog,0,2012-11-27 15:07:00
7:15 AM,26.6,24.8,93,30.23,0.2,Calm,Calm,-,N/A,Fog,Light Freezing Fog,0,2012-11-27 15:15:00
7:52 AM,27.0,26.1,96,30.29,0.2,Calm,Calm,-,N/A,Fog,Light Freezing Fog,0,2012-11-27 15:52:00
8:36 AM,28.4,26.6,93,30.25,1.0,Calm,Calm,-,N/A,,Overcast,0,2012-11-27 16:36:00
8:41 AM,28.4,26.6,93,30.25,3.0,Calm,Calm,-,N/A,,Overcast,0,2012-11-27 16:41:00
8:52 AM,28.9,27.0,92,30.29,3.0,Calm,Calm,-,N/A,,Overcast,0,2012-11-27 16:52:00
9:10 AM,28.4,26.6,93,30.25,2.0,Calm,Calm,-,N/A,,Overcast,0,2012-11-27 17:10:00
9:52 AM,30.0,26.1,85,30.29,2.0,Calm,Calm,-,N/A,,Overcast,0,2012-11-27 17:52:00
10:52 AM,30.0,28.0,92,30.29,2.0,SSE,3.5,-,N/A,,Overcast,150,2012-11-27 18:52:00
11:52 AM,30.9,28.9,92,30.27,2.0,Calm,Calm,-,N/A,,Overcast,0,2012-11-27 19:52:00
12:52 PM,30.9,28.0,89,30.25,2.0,Calm,Calm,-,N/A,,Overcast,0,2012-11-27 20:52:00
1:52 PM,32.0,28.9,88,30.24,3.0,SSE,4.6,-,N/A,,Overcast,160,2012-11-27 21:52:00
2:52 PM,30.9,28.0,89,30.23,9.0,SSE,4.6,-,N/A,,Overcast,160,2012-11-27 22:52:00
3:52 PM,30.9,28.0,89,30.22,8.0,SSE,4.6,-,N/A,,Overcast,150,2012-11-27 23:52:00
4:52 PM,30.0,28.0,92,30.20,8.0,SE,3.5,-,N/A,,Overcast,140,2012-11-28 00:52:00
5:52 PM,30.9,28.0,89,30.21,8.0,SSE,3.5,-,N/A,,Overcast,160,2012-11-28 01:52:00
6:52 PM,30.9,28.0,89,30.20,6.0,Calm,Calm,-,N/A,,Overcast,0,2012-11-28 02:52:00
7:52 PM,30.9,28.9,92,30.19,0.5,Calm,Calm,-,N/A,Fog,Light Freezing Fog,0,2012-11-28 03:52:00
8:09 PM,30.2,28.4,93,30.15,2.5,Calm,Calm,-,N/A,,Overcast,0,2012-11-28 04:09:00
8:41 PM,30.2,28.4,93,30.14,1.5,Calm,Calm,-,N/A,,Overcast,0,2012-11-28 04:41:00
8:52 PM,30.9,28.0,89,30.18,1.5,Calm,Calm,-,N/A,,Overcast,0,2012-11-28 04:52:00
9:36 PM,30.2,28.4,93,30.14,0.5,SSE,3.5,-,N/A,Fog,Light Freezing Fog,150,2012-11-28 05:36:00
9:52 PM,30.9,28.0,89,30.17,0.5,Calm,Calm,-,N/A,Fog,Light Freezing Fog,0,2012-11-28 05:52:00
10:52 PM,30.9,28.9,92,30.17,0.5,Calm,Calm,-,N/A,Fog,Light Freezing Fog,0,2012-11-28 06:52:00
11:34 PM,30.2,28.4,93,30.12,0.2,Calm,Calm,-,N/A,Fog,Light Freezing Fog,0,2012-11-28 07:34:00
11:52 PM,30.0,28.9,96,30.16,0.5,Calm,Calm,-,N/A,Fog,Light Freezing Fog,0,2012-11-28 07:52:00